Showing default

OV2-5, 3428

Orbit data source: Space-Track

OV2-5, 3428 is a payload satellite owned by SAMSO (US) in GEO that was launched on Thu, 26 Sep 1968 UTC via a TITAN IIIC launch vehicle from the Air Force Eastern Test Range (AFETR). Payload-class satellites include a variety of spacecraft equipped with specific instruments for various scientific and technological missions. These include communications satellites like Starlink; space stations such as the ISS; scientific satellites like the Hubble; Earth observation satellites from companies like Planet Labs, Umbra, and HawkEye 360; GPS; miniature CubeSats for education and research; and military/defense satellites.

Loading next visibility...
Identifier
3428, 1968-081A
Orbit
GEO
Country
Flag of USUS
Related business
Manufacturer
Northrop
Mission
Non-operational spacecraft
Bus & Motor
OV2, Unknown motor
Mass
~200 kg wet, ~200 kg dry
Launch date (UTC)
1968-09-26 (57 years ago)
Launch vehicle
TITAN IIIC
Launch site
Air Force Eastern Test Range (AFETR)
Object type
Payload
Rocket body
Debris
Shape & HBR
Unknown
Radar Cross Section
Medium (>0.1 m² and <1 m²)

Expand to show TLE details & history
Last TLE update: 15 hours ago

TLE from 15 hours ago
0 OV2-5
1 03428U 68081A   25347.34457012  .00000079  00000-0  00000-0 0  9993
2 03428   1.6332  44.4962 0080814 284.5631  70.7847  1.01556804119164
Epoch: 2025-12-13T08:16Z
TLE epoch observation values (Epoch: 2025-12-13T08:16:10.858Z)
Latitude
-0.09109°
Longitude
-165.60443°
Altitude
35,321.971 km
Speed
3.096 km/s
True Right ascension
02h 42m 51s
True Declination
0° 05' 28"
Sunlit
Object was in daylight at epoch
Visualization orbit readout
Latitude
Unknown
Longitude
Unknown
Altitude
Unknown
Speed
Unknown
Apparent Right ascension
Unknown
Apparent Declination
Unknown
Sunlit
N/A
Visualization observer readout
Local Sidereal Time
21:48:44
Azimuth
Unknown
Elevation
Unknown
Doppler factor
Unknown
Orbital elements
Apogee altitude
35,769.117 km
Perigee altitude
35,093.361 km
Semi-major axis
41,809.376 km
Eccentricity
0.00808
Inclination
1.6332°
RAAN
44.4962°
Arg. of periapsis
284.5631°
True anomaly
71.66205°
Mean anomaly
70.7847°
Eccentric anomaly
71.22309°
Mean motion
0.25388 °/min
Orbital period
1,417.98 mins
BSTAR
0
Loading maneuver chart data...
Computing Atmospheric mass density...

Documentation

Showing up to 5 results
|